Weather in Klinovets

Russia / Belgorod Oblast     50°47′14″N   37°17′13″E
temp.,
°C
wind,
m/s
gust,
m/s
humid.,
%
clouds,
%
prec.,
mm/h
press.,
hPa
HPBL,
m
23 may, mon
mon2300:00+7n41093100 0.0 1001294
03:00+6nnw489555 0.1 1003165
06:00+7n47915 0.1 1005260
09:00+11n58667 0.1 10051313
12:00+13n464658 0.0 10062087
15:00+14nnw554586 0.0 10072232
18:00+12n5660100 0.0 1007769
21:00+7nne227681 0.0 100921
24 may, tue
tue2400:00+6w11759 0.0 101010
03:00+5w337783 0.0 101147
06:00+5w39805 0.0 1011237
09:00+12wnw46604 0.0 1011715
12:00+15wnw564313 0.0 10102198
15:00+13wnw4660100 0.0 1010822
18:00+13wnw4773100 0.7 1011796
21:00+8wnw338019 0.8 101324
25 may, wed
wed2500:00+7w487849 0.0 1013134
03:00+6nw389439 0.0 1014157
06:00+7n2582100 0.0 1015154
09:00+11nnw2365100 0.0 1017463
12:00+13nw3556100 0.0 10171062
15:00+16nw595027 0.0 10161713
18:00+16n48623 0.0 10171568
21:00+10se11770 0.0 101810
26 may, thu
thu2600:00+9s348698 0.0 101852
03:00+11wsw378288 0.0 1018163
06:00+11sw388067 0.0 1017196
09:00+16sw61063100 0.0 1016569
12:00+18sw71263100 0.0 10141327
15:00+12wsw101690100 2.1 1014995
18:00+10sw81494100 0.9 1013656
21:00+11wsw61293100 0.9 1013610
27 may, fri
fri2700:00+11sw6139726 0.0 1012316
03:00+10wsw513955 0.0 1012344
06:00+11wsw61591100 0.0 1011444
09:00+15w9137540 0.0 10111087
12:00+17wnw913545 0.1 10111968
15:00+17wnw811505 0.1 10122047
18:00+17wnw511624 0.0 10121781
21:00+12wsw35815 0.0 101366